404 - Page Not Found

404

Error - Page Not Found


Please check the URL.

Otherwise, click here to be redirected to the homepage.

  • Currently

    Reported at Minneapolis, Minneapolis-St. Paul International Airport, MN
    1:53 PM CST FRI FEB 23 2018
  • 32°F0°C
  • Partly Cloudy
    Partly Cloudy
  • Feels Like:25°F-4°CDew Point:21°F-6°CHumidity:64% Winds:SSW 9 mph 14 kph
    Pressure:30.18 in1022 hPaVisibility:10.00 miles16090.00 meters
Time Weather Temp Dew Point
Humidity Winds Visibility Pressure Precipitation
1 hr 24 hr
Saturday, February 17
00:53 00:53 Mostly Clear Mostly Clear 22°F-6°C 7°F-14°C 52% CalmCalm 10.0 miles16.1 km 30.09 in1019 hPa 0.00 in0.00 mm --
23:53 23:53 Mostly Clear Mostly Clear 23°F-5°C 7°F-14°C 50% W 5 mphW 7 kph 10.0 miles16.1 km 30.09 in1019 hPa 0.00 in0.00 mm --
22:53 22:53 Mostly Clear Mostly Clear 22°F-6°C 7°F-14°C 52% WNW 6 mphWNW 9 kph 10.0 miles16.1 km 30.06 in1018 hPa 0.00 in0.00 mm --
21:53 21:53 Mostly Clear Mostly Clear 24°F-4°C 9°F-13°C 52% NW 9 mphNW 15 kph 10.0 miles16.1 km 30.06 in1018 hPa 0.00 in0.00 mm --
20:53 20:53 Clear Clear 27°F-3°C 12°F-11°C 53% NW 14 mphNW 22 kph 10.0 miles16.1 km 30.03 in1017 hPa 0.00 in0.00 mm --
19:53 19:53 Clear Clear 29°F-2°C 13°F-11°C 51% WNW 13 mphWNW 20 kph 10.0 miles16.1 km 30 in1016 hPa 0.00 in0.00 mm --
18:53 18:53 Clear Clear 31°F-1°C 14°F-10°C 49% WNW 15 mphWNW 24 kph 10.0 miles16.1 km 29.97 in1015 hPa 0.00 in0.00 mm --
17:53 17:53 Partly Cloudy Partly Cloudy 35°F2°C 17°F-8°C 48% WNW 14 mphWNW 22 kph 10.0 miles16.1 km 29.94 in1014 hPa 0.00 in0.00 mm --
16:53 16:53 Mostly Cloudy Mostly Cloudy 37°F3°C 18°F-8°C 46% WNW 20 mphWNW 31 kph 10.0 miles16.1 km 29.91 in1013 hPa 0.00 in0.00 mm --
15:53 15:53 Mostly Cloudy Mostly Cloudy 37°F3°C 21°F-6°C 52% WNW 13 mphWNW 20 kph 10.0 miles16.1 km 29.88 in1012 hPa 0.00 in0.00 mm --
14:53 14:53 Mostly Cloudy Mostly Cloudy 35°F2°C 23°F-5°C 61% W 10 mphW 17 kph 10.0 miles16.1 km 29.88 in1012 hPa 0.00 in0.00 mm --
14:29 14:29 Mostly Cloudy Mostly Cloudy 34°F1°C 25°F-4°C 70% W 7 mphW 11 kph 10.0 miles16.1 km 29.88 in1012 hPa 0.00 in0.00 mm --
13:53 13:53 Mostly Sunny Mostly Sunny 33°F1°C 25°F-4°C 72% W 8 mphW 13 kph 10.0 miles16.1 km 29.88 in1012 hPa 0.00 in0.00 mm --
13:43 13:43 Partly Cloudy Partly Cloudy 32°F0°C 24°F-4°C 73% W 8 mphW 13 kph 10.0 miles16.1 km 29.88 in1012 hPa 0.00 in0.00 mm --
13:03 13:03 Cloudy Cloudy 31°F-1°C 25°F-4°C 79% W 6 mphW 9 kph 10.0 miles16.1 km 29.91 in1013 hPa 0.00 in0.00 mm --
12:53 12:53 Cloudy Cloudy 31°F-1°C 25°F-4°C 79% W 7 mphW 11 kph 10.0 miles16.1 km 29.88 in1012 hPa 0.00 in0.00 mm --
11:53 11:53 Cloudy Cloudy 28°F-2°C 24°F-4°C 85% WSW 9 mphWSW 15 kph 10.0 miles16.1 km 29.91 in1013 hPa 0.00 in0.00 mm --
11:06 11:06 Mostly Cloudy Mostly Cloudy 27°F-3°C 23°F-5°C 85% WSW 12 mphWSW 19 kph 10.0 miles16.1 km 29.88 in1012 hPa 0.00 in0.00 mm --
10:53 10:53 Mostly Sunny Mostly Sunny 26°F-3°C 23°F-5°C 88% SW 7 mphSW 11 kph 10.0 miles16.1 km 29.88 in1012 hPa 0.01 in6.45 mm --
10:24 10:24 Partly Cloudy Partly Cloudy 25°F-4°C 23°F-5°C 92% SW 7 mphSW 11 kph 9.0 miles14.5 km 29.88 in1012 hPa 0.01 in6.45 mm --
10:10 10:10 Cloudy With Light Snow Cloudy With Light Snow 25°F-4°C 23°F-5°C 92% SW 5 mphSW 7 kph 4.0 miles6.4 km 29.88 in1012 hPa 0.00 in0.03 mm --
09:53 09:53 Cloudy With Light Snow Cloudy With Light Snow 25°F-4°C 23°F-5°C 92% WSW 5 mphWSW 7 kph 2.5 miles4.0 km 29.88 in1012 hPa 0.00 in0.03 mm --
09:17 09:17 Cloudy With Light Snow Cloudy With Light Snow 24°F-4°C 22°F-6°C 91% SW 7 mphSW 11 kph 3.0 miles4.8 km 29.88 in1012 hPa 0.00 in0.03 mm --
09:02 09:02 Cloudy With Light Snow Cloudy With Light Snow 24°F-4°C 22°F-6°C 91% SW 8 mphSW 13 kph 2.0 miles3.2 km 29.88 in1012 hPa 0.00 in0.03 mm --
08:53 08:53 Cloudy With Light Snow Cloudy With Light Snow 24°F-4°C 21°F-6°C 88% SW 9 mphSW 15 kph 1.8 miles2.8 km 29.88 in1012 hPa 0.00 in0.03 mm --
08:51 08:51 Cloudy With Light Snow Cloudy With Light Snow 25°F-4°C 21°F-6°C 86% SW 9 mphSW 15 kph 2.0 miles3.2 km 29.88 in1012 hPa 0.00 in0.03 mm --
07:53 07:53 Cloudy Cloudy 25°F-4°C 16°F-9°C 69% SW 8 mphSW 13 kph 10.0 miles16.1 km 29.88 in1012 hPa 0.00 in0.00 mm --
06:53 06:53 Cloudy Cloudy 25°F-4°C 15°F-9°C 66% SW 9 mphSW 15 kph 10.0 miles16.1 km 29.88 in1012 hPa 0.00 in0.00 mm --
05:53 05:53 Cloudy Cloudy 24°F-4°C 14°F-10°C 65% SW 9 mphSW 15 kph 10.0 miles16.1 km 29.88 in1012 hPa 0.00 in0.00 mm --
04:53 04:53 Cloudy Cloudy 24°F-4°C 14°F-10°C 65% SW 10 mphSW 17 kph 10.0 miles16.1 km 29.91 in1013 hPa 0.00 in0.00 mm --
03:53 03:53 Cloudy Cloudy 23°F-5°C 13°F-11°C 65% SW 9 mphSW 15 kph 10.0 miles16.1 km 29.91 in1013 hPa 0.00 in0.00 mm --
02:53 02:53 Cloudy Cloudy 23°F-5°C 12°F-11°C 63% SSW 12 mphSSW 19 kph 10.0 miles16.1 km 29.94 in1014 hPa 0.00 in0.00 mm --
01:53 01:53 Cloudy Cloudy 22°F-6°C 12°F-11°C 66% SSW 12 mphSSW 19 kph 10.0 miles16.1 km 29.97 in1015 hPa 0.00 in0.00 mm --
404 - Page Not Found

404

Error - Page Not Found


Please check the URL.

Otherwise, click here to be redirected to the homepage.